| time (UTC) | temp F | wind direction | speed MPH | gust MPH | rain 1hr in | rain 24hr in | rain mn in | humidity % | barometer mb |
| 20260903211458 | 88 | 197 | 3.0 | 9.0 | 0.00 | 0.00 | 0.00 | 69 | 1013.7 |
| 20260903210954 | 88 | 188 | 3.0 | 7.0 | 0.00 | 0.00 | 0.00 | 69 | 1014.0 |
| 20260903210454 | 87 | 129 | 6.0 | 9.0 | 0.00 | 0.00 | 0.00 | 71 | 1014.1 |
| 20260903205949 | 87 | 137 | 6.0 | 9.0 | 0.00 | 0.00 | 0.00 | 72 | 1014.2 |
| 20260903205444 | 87 | 85 | 6.0 | 10.0 | 0.00 | 0.00 | 0.00 | 71 | 1014.0 |
| 20260903204938 | 87 | 186 | 1.0 | 6.0 | 0.00 | 0.00 | 0.00 | 71 | 1014.1 |
| 20260903204434 | 87 | 216 | 3.0 | 7.0 | 0.00 | 0.00 | 0.00 | 70 | 1014.1 |
| 20260903203930 | 87 | 290 | 1.0 | 6.0 | 0.00 | 0.00 | 0.00 | 70 | 1013.9 |
| 20260903203425 | 88 | 219 | 4.0 | 10.0 | 0.00 | 0.00 | 0.00 | 69 | 1014.1 |
| 20260903202925 | 87 | 147 | 0.0 | 4.0 | 0.00 | 0.00 | 0.00 | 71 | 1014.2 |
| 20260903202421 | 87 | 175 | 1.0 | 6.0 | 0.00 | 0.00 | 0.00 | 71 | 1014.4 |
| 20260903201921 | 87 | 137 | 2.0 | 4.0 | 0.00 | 0.00 | 0.00 | 70 | 1014.6 |
| 20260903201416 | 88 | 106 | 2.0 | 8.0 | 0.00 | 0.00 | 0.00 | 69 | 1014.5 |
| 20260903200915 | 89 | 163 | 6.0 | 8.0 | 0.00 | 0.00 | 0.00 | 66 | 1014.3 |
| 20260903200410 | 88 | 191 | 3.0 | 4.0 | 0.00 | 0.00 | 0.00 | 69 | 1014.4 |
| 20260903195905 | 88 | 150 | 2.0 | 6.0 | 0.00 | 0.00 | 0.00 | 69 | 1014.6 |
| 20260903195402 | 88 | 85 | 1.0 | 4.0 | 0.00 | 0.00 | 0.00 | 69 | 1014.5 |
| 20260903194855 | 87 | 214 | 8.0 | 9.0 | 0.00 | 0.00 | 0.00 | 70 | 1014.7 |
| 20260903194351 | 85 | 133 | 2.0 | 7.0 | 0.00 | 0.00 | 0.00 | 72 | 1014.7 |
| 20260903193847 | 85 | 213 | 6.0 | 8.0 | 0.00 | 0.00 | 0.00 | 73 | 1014.7 |
| 20260903193343 | 85 | 67 | 6.0 | 9.0 | 0.00 | 0.00 | 0.00 | 73 | 1014.9 |
| 20260903192838 | 85 | 191 | 4.0 | 13.0 | 0.00 | 0.00 | 0.00 | 73 | 1015.0 |
| 20260903192334 | 86 | 36 | 4.0 | 8.0 | 0.00 | 0.00 | 0.00 | 72 | 1014.8 |
| 20260903191830 | 85 | 192 | 2.0 | 6.0 | 0.00 | 0.00 | 0.00 | 74 | 1014.9 |
| 20260903191326 | 85 | 159 | 5.0 | 10.0 | 0.00 | 0.00 | 0.00 | 75 | 1015.0 |
| 20260903190825 | 84 | 181 | 5.0 | 10.0 | 0.00 | 0.00 | 0.00 | 77 | 1015.4 |
| 20260903190320 | 84 | 148 | 2.0 | 6.0 | 0.00 | 0.00 | 0.00 | 79 | 1015.5 |
| 20260903185819 | 83 | 250 | 0.0 | 6.0 | 0.00 | 0.00 | 0.00 | 80 | 1015.6 |
| 20260903185315 | 83 | 41 | 2.0 | 7.0 | 0.00 | 0.00 | 0.00 | 82 | 1015.5 |
| 20260903184811 | 82 | 196 | 6.0 | 8.0 | 0.00 | 0.00 | 0.00 | 82 | 1015.8 |
| 20260903184307 | 82 | 182 | 4.0 | 7.0 | 0.00 | 0.00 | 0.00 | 83 | 1016.0 |
| 20260903183802 | 81 | 173 | 4.0 | 7.0 | 0.00 | 0.00 | 0.00 | 84 | 1016.1 |
| 20260903183256 | 81 | 232 | 6.0 | 13.0 | 0.00 | 0.00 | 0.00 | 84 | 1016.0 |
| 20260903182755 | 81 | 169 | 2.0 | 7.0 | 0.00 | 0.00 | 0.00 | 85 | 1016.1 |
| 20260903182250 | 81 | 185 | 4.0 | 8.0 | 0.00 | 0.00 | 0.00 | 85 | 1016.0 |
| 20260903181749 | 81 | 211 | 3.0 | 6.0 | 0.00 | 0.00 | 0.00 | 86 | 1016.3 |
| 20260903181244 | 81 | 102 | 2.0 | 9.0 | 0.00 | 0.00 | 0.00 | 86 | 1016.4 |
| 20260903180739 | 81 | 207 | 5.0 | 7.0 | 0.00 | 0.00 | 0.00 | 86 | 1016.5 |
| 20260903180239 | 81 | 88 | 2.0 | 7.0 | 0.00 | 0.00 | 0.00 | 87 | 1016.4 |
| 20260903175738 | 81 | 163 | 6.0 | 9.0 | 0.00 | 0.00 | 0.00 | 87 | 1016.5 |
| 20260903175238 | 81 | 158 | 1.0 | 8.0 | 0.00 | 0.00 | 0.00 | 88 | 1016.5 |
| 20260903174737 | 81 | 109 | 3.0 | 6.0 | 0.00 | 0.00 | 0.00 | 88 | 1016.7 |
| 20260903174233 | 80 | 190 | 2.0 | 7.0 | 0.00 | 0.00 | 0.00 | 88 | 1017.0 |
| 20260903173728 | 80 | 137 | 2.0 | 6.0 | 0.00 | 0.00 | 0.00 | 89 | 1017.0 |
| 20260903173224 | 80 | 123 | 4.0 | 6.0 | 0.00 | 0.00 | 0.00 | 89 | 1017.1 |
| 20260903172723 | 80 | 85 | 2.0 | 7.0 | 0.00 | 0.00 | 0.00 | 89 | 1017.1 |
| 20260903172218 | 80 | 122 | 4.0 | 7.0 | 0.00 | 0.00 | 0.00 | 89 | 1017.3 |
| 20260903171714 | 80 | 146 | 4.0 | 10.0 | 0.00 | 0.00 | 0.00 | 89 | 1017.0 |
| 20260903171210 | 80 | 83 | 4.0 | 6.0 | 0.00 | 0.00 | 0.00 | 90 | 1017.3 |
| 20260903170708 | 80 | 109 | 2.0 | 7.0 | 0.00 | 0.00 | 0.00 | 90 | 1017.3 |
| 20260903170204 | 80 | 122 | 4.0 | 6.0 | 0.00 | 0.00 | 0.00 | 90 | 1017.4 |
| 20260903165701 | 80 | 233 | 2.0 | 6.0 | 0.00 | 0.00 | 0.00 | 90 | 1017.5 |
| 20260903165157 | 80 | 205 | 1.0 | 4.0 | 0.00 | 0.00 | 0.00 | 89 | 1017.4 |
| 20260903164651 | 80 | 134 | 3.0 | 8.0 | 0.00 | 0.00 | 0.00 | 89 | 1017.1 |
| 20260903164147 | 80 | 115 | 4.0 | 6.0 | 0.00 | 0.00 | 0.00 | 88 | 1017.4 |
| 20260903163647 | 81 | 87 | 3.0 | 11.0 | 0.00 | 0.00 | 0.00 | 87 | 1017.3 |
| 20260903163143 | 81 | 82 | 2.0 | 6.0 | 0.00 | 0.00 | 0.00 | 87 | 1017.2 |
| 20260903162639 | 81 | 123 | 6.0 | 10.0 | 0.00 | 0.00 | 0.00 | 87 | 1017.0 |
| 20260903162135 | 81 | 217 | 3.0 | 9.0 | 0.00 | 0.00 | 0.00 | 87 | 1017.1 |
| 20260903161630 | 81 | 174 | 3.0 | 7.0 | 0.00 | 0.00 | 0.00 | 86 | 1016.9 |
| 20260903161126 | 81 | 163 | 2.0 | 2.0 | 0.00 | 0.00 | 0.00 | 87 | 1016.6 |
| 20260903160621 | 81 | 217 | 4.0 | 4.0 | 0.00 | 0.00 | 0.00 | 86 | 1016.7 |
| 20260903160115 | 81 | 112 | 2.0 | 4.0 | 0.00 | 0.00 | 0.00 | 86 | 1016.7 |
| 20260903155614 | 81 | 135 | 2.0 | 4.0 | 0.00 | 0.00 | 0.00 | 85 | 1016.5 |
| 20260903155109 | 81 | 196 | 2.0 | 3.0 | 0.00 | 0.00 | 0.00 | 85 | 1016.6 |
| 20260903154605 | 82 | 141 | 6.0 | 8.0 | 0.00 | 0.00 | 0.00 | 84 | 1016.6 |
| 20260903154101 | 82 | 92 | 4.0 | 8.0 | 0.00 | 0.00 | 0.00 | 84 | 1016.5 |
| 20260903153556 | 81 | 231 | 3.0 | 3.0 | 0.00 | 0.00 | 0.00 | 84 | 1016.4 |
| 20260903153052 | 81 | 67 | 2.0 | 7.0 | 0.00 | 0.00 | 0.00 | 84 | 1016.4 |
| 20260903152548 | 81 | 79 | 3.0 | 8.0 | 0.00 | 0.00 | 0.00 | 85 | 1016.3 |
| 20260903152044 | 81 | 102 | 2.0 | 7.0 | 0.00 | 0.00 | 0.00 | 86 | 1016.2 |
| 20260903151543 | 80 | 203 | 3.0 | 6.0 | 0.00 | 0.00 | 0.00 | 87 | 1016.2 |
| 20260903151039 | 80 | 178 | 0.0 | 1.0 | 0.00 | 0.00 | 0.00 | 88 | 1016.3 |
| 20260903150538 | 80 | 159 | 1.0 | 3.0 | 0.00 | 0.00 | 0.00 | 89 | 1016.1 |
| 20260903150034 | 80 | 226 | 1.0 | 6.0 | 0.00 | 0.00 | 0.00 | 88 | 1016.2 |
| 20260903145533 | 81 | 134 | 2.0 | 7.0 | 0.00 | 0.00 | 0.00 | 87 | 1016.3 |
| 20260903145029 | 81 | 104 | 4.0 | 6.0 | 0.00 | 0.00 | 0.00 | 85 | 1016.2 |
| 20260903144527 | 81 | 212 | 2.0 | 4.0 | 0.00 | 0.00 | 0.00 | 85 | 1016.1 |
| 20260903144024 | 81 | 75 | 1.0 | 3.0 | 0.00 | 0.00 | 0.00 | 85 | 1016.3 |
| 20260903143520 | 81 | 161 | 2.0 | 4.0 | 0.00 | 0.00 | 0.00 | 85 | 1016.0 |
| 20260903143015 | 80 | 133 | 2.0 | 11.0 | 0.00 | 0.00 | 0.00 | 86 | 1016.0 |
| 20260903142510 | 80 | 140 | 3.0 | 6.0 | 0.00 | 0.00 | 0.00 | 86 | 1016.0 |
| 20260903142007 | 80 | 210 | 3.0 | 4.0 | 0.00 | 0.00 | 0.00 | 87 | 1016.0 |
| 20260903141503 | 80 | 201 | 5.0 | 6.0 | 0.00 | 0.00 | 0.00 | 87 | 1015.9 |
| 20260903140958 | 80 | 171 | 4.0 | 7.0 | 0.00 | 0.00 | 0.00 | 87 | 1016.0 |
| 20260903140453 | 80 | 149 | 3.0 | 6.0 | 0.00 | 0.00 | 0.00 | 88 | 1015.9 |
| 20260903135948 | 80 | 201 | 3.0 | 7.0 | 0.00 | 0.00 | 0.00 | 88 | 1016.0 |
| 20260903135444 | 80 | 205 | 4.0 | 8.0 | 0.00 | 0.00 | 0.00 | 88 | 1016.0 |
| 20260903134944 | 79 | 221 | 2.0 | 4.0 | 0.00 | 0.00 | 0.00 | 88 | 1015.6 |
| 20260903134443 | 79 | 251 | 2.0 | 4.0 | 0.00 | 0.00 | 0.00 | 88 | 1015.8 |
| 20260903133940 | 80 | 107 | 2.0 | 4.0 | 0.00 | 0.00 | 0.00 | 87 | 1016.1 |
| 20260903133437 | 80 | 119 | 2.0 | 2.0 | 0.00 | 0.00 | 0.00 | 87 | 1016.1 |
| 20260903132932 | 79 | 329 | 1.0 | 1.0 | 0.00 | 0.00 | 0.00 | 86 | 1016.1 |
| 20260903132428 | 79 | 92 | 2.0 | 4.0 | 0.00 | 0.00 | 0.00 | 86 | 1015.9 |
| 20260903131927 | 79 | 172 | 1.0 | 2.0 | 0.00 | 0.00 | 0.00 | 86 | 1015.9 |
| 20260903131422 | 79 | 197 | 2.0 | 2.0 | 0.00 | 0.00 | 0.00 | 86 | 1015.6 |
| 20260903130921 | 79 | 107 | 2.0 | 4.0 | 0.00 | 0.00 | 0.00 | 86 | 1015.7 |
| 20260903130416 | 79 | 185 | 2.0 | 4.0 | 0.00 | 0.00 | 0.00 | 85 | 1015.6 |
| 20260903125915 | 79 | 229 | 0.0 | 2.0 | 0.00 | 0.00 | 0.00 | 85 | 1015.8 |
| 20260903125410 | 79 | 190 | 2.0 | 3.0 | 0.00 | 0.00 | 0.00 | 85 | 1015.7 |
| 20260903124909 | 79 | 247 | 1.0 | 2.0 | 0.00 | 0.00 | 0.00 | 85 | 1015.5 |
| 20260903124405 | 79 | 72 | 1.0 | 3.0 | 0.00 | 0.00 | 0.00 | 86 | 1015.6 |
| 20260903123903 | 79 | 171 | 1.0 | 1.0 | 0.00 | 0.00 | 0.00 | 85 | 1015.4 |
| 20260903123358 | 79 | 120 | 2.0 | 2.0 | 0.00 | 0.00 | 0.00 | 85 | 1015.3 |
| 20260903122857 | 79 | 202 | 4.0 | 4.0 | 0.00 | 0.00 | 0.00 | 85 | 1015.4 |
| 20260903122352 | 79 | 247 | 0.0 | 2.0 | 0.00 | 0.00 | 0.00 | 85 | 1015.5 |
| 20260903121851 | 79 | 234 | 0.0 | 2.0 | 0.00 | 0.00 | 0.00 | 85 | 1015.4 |
| 20260903121346 | 78 | 226 | 1.0 | 2.0 | 0.00 | 0.00 | 0.00 | 85 | 1015.3 |
| 20260903120842 | 78 | 217 | 0.0 | 1.0 | 0.00 | 0.00 | 0.00 | 84 | 1015.0 |
| 20260903120340 | 78 | 218 | 0.0 | 1.0 | 0.00 | 0.00 | 0.00 | 84 | 1015.2 |
| 20260903115839 | 78 | 188 | 1.0 | 2.0 | 0.00 | 0.00 | 0.00 | 84 | 1015.3 |
| 20260903115334 | 78 | 191 | 2.0 | 3.0 | 0.00 | 0.00 | 0.00 | 84 | 1015.0 |
| 20260903114834 | 78 | 162 | 3.0 | 4.0 | 0.00 | 0.00 | 0.00 | 84 | 1014.9 |
| 20260903114330 | 78 | 193 | 2.0 | 6.0 | 0.00 | 0.00 | 0.00 | 84 | 1015.0 |
| 20260903113825 | 78 | 227 | 2.0 | 2.0 | 0.00 | 0.00 | 0.00 | 84 | 1015.1 |
| 20260903113320 | 78 | 162 | 5.0 | 6.0 | 0.00 | 0.00 | 0.00 | 83 | 1014.8 |
| 20260903112816 | 78 | 226 | 3.0 | 7.0 | 0.00 | 0.00 | 0.00 | 83 | 1014.8 |
| 20260903112312 | 78 | 208 | 3.0 | 6.0 | 0.00 | 0.00 | 0.00 | 83 | 1014.8 |
| 20260903111810 | 78 | 223 | 2.0 | 6.0 | 0.00 | 0.00 | 0.00 | 83 | 1014.7 |
| 20260903111306 | 78 | 169 | 2.0 | 4.0 | 0.00 | 0.00 | 0.00 | 82 | 1014.8 |
| 20260903110802 | 78 | 167 | 5.0 | 7.0 | 0.00 | 0.00 | 0.00 | 82 | 1014.7 |
| 20260903110257 | 79 | 251 | 1.0 | 4.0 | 0.00 | 0.00 | 0.00 | 82 | 1014.8 |
| 20260903105757 | 79 | 193 | 2.0 | 6.0 | 0.00 | 0.00 | 0.00 | 81 | 1014.7 |
| 20260903105252 | 79 | 223 | 3.0 | 4.0 | 0.00 | 0.00 | 0.00 | 81 | 1015.0 |
| 20260903104752 | 79 | 194 | 0.0 | 4.0 | 0.00 | 0.00 | 0.00 | 81 | 1015.0 |
| 20260903104247 | 79 | 180 | 3.0 | 3.0 | 0.00 | 0.00 | 0.00 | 81 | 1014.9 |
| 20260903103742 | 79 | 227 | 0.0 | 2.0 | 0.00 | 0.00 | 0.00 | 81 | 1014.9 |
| 20260903103239 | 79 | 214 | 4.0 | 7.0 | 0.00 | 0.00 | 0.00 | 81 | 1014.9 |
| 20260903102735 | 79 | 240 | 2.0 | 3.0 | 0.00 | 0.00 | 0.00 | 81 | 1015.0 |
| 20260903102234 | 79 | 156 | 3.0 | 7.0 | 0.00 | 0.00 | 0.00 | 80 | 1014.9 |
| 20260903101732 | 79 | 221 | 3.0 | 4.0 | 0.00 | 0.00 | 0.00 | 80 | 1015.0 |
| 20260903101229 | 79 | 183 | 2.0 | 4.0 | 0.00 | 0.00 | 0.00 | 80 | 1015.0 |
| 20260903100724 | 79 | 111 | 3.0 | 4.0 | 0.00 | 0.00 | 0.00 | 80 | 1014.9 |
| 20260903100223 | 79 | 164 | 4.0 | 7.0 | 0.00 | 0.00 | 0.00 | 80 | 1015.0 |
| 20260903095720 | 79 | 216 | 6.0 | 9.0 | 0.00 | 0.00 | 0.00 | 80 | 1014.8 |
| 20260903095216 | 79 | 233 | 1.0 | 4.0 | 0.00 | 0.00 | 0.00 | 80 | 1014.7 |
| 20260903094710 | 79 | 198 | 2.0 | 6.0 | 0.00 | 0.00 | 0.00 | 80 | 1014.8 |
| 20260903094206 | 79 | 189 | 3.0 | 4.0 | 0.00 | 0.00 | 0.00 | 80 | 1014.9 |
| 20260903093702 | 79 | 214 | 4.0 | 8.0 | 0.00 | 0.00 | 0.00 | 80 | 1014.9 |
| 20260903093157 | 79 | 189 | 3.0 | 6.0 | 0.00 | 0.00 | 0.00 | 80 | 1014.7 |
| 20260903092656 | 79 | 176 | 6.0 | 9.0 | 0.00 | 0.00 | 0.00 | 80 | 1014.7 |
| 20260903092151 | 79 | 192 | 2.0 | 6.0 | 0.00 | 0.00 | 0.00 | 80 | 1014.9 |
| 20260903091650 | 79 | 146 | 4.0 | 6.0 | 0.00 | 0.00 | 0.00 | 80 | 1014.9 |
| 20260903091150 | 79 | 187 | 2.0 | 6.0 | 0.00 | 0.00 | 0.00 | 80 | 1015.0 |
| 20260903090646 | 79 | 198 | 3.0 | 4.0 | 0.00 | 0.00 | 0.00 | 80 | 1015.1 |
| 20260903090144 | 79 | 201 | 2.0 | 6.0 | 0.00 | 0.00 | 0.00 | 79 | 1015.0 |
| 20260903085643 | 79 | 194 | 4.0 | 8.0 | 0.00 | 0.00 | 0.00 | 80 | 1015.2 |
| 20260903085139 | 79 | 200 | 4.0 | 7.0 | 0.00 | 0.00 | 0.00 | 80 | 1015.0 |
| 20260903084636 | 79 | 206 | 4.0 | 8.0 | 0.00 | 0.00 | 0.00 | 79 | 1015.0 |
| 20260903084131 | 79 | 241 | 4.0 | 9.0 | 0.00 | 0.00 | 0.00 | 79 | 1015.0 |
| 20260903083627 | 79 | 194 | 3.0 | 9.0 | 0.00 | 0.00 | 0.00 | 79 | 1015.0 |
| 20260903083122 | 79 | 231 | 1.0 | 2.0 | 0.00 | 0.00 | 0.00 | 80 | 1015.1 |
| 20260903082621 | 79 | 196 | 2.0 | 7.0 | 0.00 | 0.00 | 0.00 | 80 | 1015.1 |
| 20260903082118 | 79 | 242 | 6.0 | 8.0 | 0.00 | 0.00 | 0.00 | 80 | 1015.0 |
| 20260903081612 | 79 | 192 | 4.0 | 6.0 | 0.00 | 0.00 | 0.00 | 80 | 1015.2 |
| 20260903081108 | 79 | 146 | 5.0 | 6.0 | 0.00 | 0.00 | 0.00 | 80 | 1015.2 |
| 20260903080604 | 79 | 206 | 4.0 | 6.0 | 0.00 | 0.00 | 0.00 | 80 | 1015.1 |
| 20260903075555 | 79 | 197 | 2.0 | 3.0 | 0.00 | 0.00 | 0.00 | 80 | 1015.2 |
| 20260903075051 | 79 | 208 | 2.0 | 3.0 | 0.00 | 0.00 | 0.00 | 81 | 1015.2 |
| 20260903074550 | 79 | 195 | 3.0 | 6.0 | 0.00 | 0.00 | 0.00 | 81 | 1015.1 |
| 20260903074049 | 79 | 193 | 6.0 | 7.0 | 0.00 | 0.00 | 0.00 | 81 | 1015.1 |
| 20260903073545 | 79 | 178 | 5.0 | 6.0 | 0.00 | 0.00 | 0.00 | 80 | 1015.1 |
| 20260903073041 | 79 | 137 | 3.0 | 8.0 | 0.00 | 0.00 | 0.00 | 80 | 1015.1 |
| 20260903072536 | 79 | 203 | 4.0 | 9.0 | 0.00 | 0.00 | 0.00 | 80 | 1014.9 |
| 20260903072033 | 79 | 187 | 5.0 | 6.0 | 0.00 | 0.00 | 0.00 | 80 | 1015.0 |
| 20260903071529 | 79 | 225 | 3.0 | 7.0 | 0.00 | 0.00 | 0.00 | 80 | 1014.8 |
| 20260903071024 | 79 | 183 | 7.0 | 9.0 | 0.00 | 0.00 | 0.00 | 80 | 1014.9 |
| 20260903070524 | 79 | 127 | 4.0 | 13.0 | 0.00 | 0.00 | 0.00 | 80 | 1014.8 |
| 20260903070020 | 80 | 164 | 2.0 | 7.0 | 0.00 | 0.00 | 0.00 | 80 | 1014.7 |
| 20260903065519 | 80 | 214 | 4.0 | 6.0 | 0.00 | 0.00 | 0.00 | 80 | 1015.0 |
| 20260903065019 | 80 | 210 | 3.0 | 9.0 | 0.00 | 0.00 | 0.00 | 80 | 1015.0 |
| 20260903064519 | 80 | 125 | 2.0 | 10.0 | 0.00 | 0.00 | 0.00 | 80 | 1015.1 |
| 20260903064015 | 80 | 170 | 3.0 | 8.0 | 0.00 | 0.00 | 0.00 | 80 | 1015.2 |
| 20260903063510 | 80 | 197 | 2.0 | 6.0 | 0.00 | 0.00 | 0.00 | 80 | 1015.1 |
| 20260903063005 | 80 | 165 | 6.0 | 8.0 | 0.00 | 0.00 | 0.00 | 80 | 1015.1 |
| 20260903062500 | 80 | 213 | 3.0 | 6.0 | 0.00 | 0.00 | 0.00 | 79 | 1014.9 |
| 20260903061956 | 80 | 197 | 2.0 | 6.0 | 0.00 | 0.00 | 0.00 | 79 | 1015.2 |
| 20260903061456 | 80 | 221 | 2.0 | 3.0 | 0.00 | 0.00 | 0.00 | 79 | 1015.3 |
| 20260903060952 | 80 | 211 | 2.0 | 4.0 | 0.00 | 0.00 | 0.00 | 78 | 1015.3 |
| 20260903060451 | 80 | 126 | 4.0 | 7.0 | 0.00 | 0.00 | 0.00 | 78 | 1015.4 |
| 20260903055951 | 80 | 205 | 6.0 | 7.0 | 0.00 | 0.00 | 0.00 | 78 | 1015.2 |
| 20260903055449 | 80 | 205 | 2.0 | 8.0 | 0.00 | 0.00 | 0.00 | 78 | 1015.1 |
| 20260903054948 | 80 | 197 | 3.0 | 7.0 | 0.00 | 0.00 | 0.00 | 77 | 1015.3 |
| 20260903054443 | 80 | 194 | 3.0 | 4.0 | 0.00 | 0.00 | 0.00 | 77 | 1015.5 |
| 20260903053939 | 81 | 190 | 3.0 | 6.0 | 0.00 | 0.00 | 0.00 | 77 | 1015.2 |
| 20260903053438 | 81 | 200 | 4.0 | 6.0 | 0.00 | 0.00 | 0.00 | 77 | 1015.3 |
| 20260903052935 | 81 | 204 | 3.0 | 4.0 | 0.00 | 0.00 | 0.00 | 76 | 1015.2 |
| 20260903052431 | 81 | 192 | 2.0 | 2.0 | 0.00 | 0.00 | 0.00 | 76 | 1015.2 |
| 20260903051926 | 81 | 141 | 2.0 | 3.0 | 0.00 | 0.00 | 0.00 | 76 | 1015.3 |
| 20260903051422 | 81 | 180 | 1.0 | 3.0 | 0.00 | 0.00 | 0.00 | 76 | 1015.5 |
| 20260903050917 | 81 | 197 | 1.0 | 2.0 | 0.00 | 0.00 | 0.00 | 76 | 1015.3 |
| 20260903050416 | 81 | 238 | 1.0 | 2.0 | 0.00 | 0.00 | 0.00 | 76 | 1015.3 |
| 20260903045910 | 81 | 127 | 1.0 | 3.0 | 0.00 | 0.00 | 0.00 | 75 | 1015.3 |
| 20260903045406 | 81 | 200 | 1.0 | 1.0 | 0.00 | 0.00 | 0.00 | 75 | 1015.2 |
| 20260903044903 | 81 | 206 | 1.0 | 1.0 | 0.00 | 0.00 | 0.00 | 75 | 1015.2 |
| 20260903044403 | 81 | 198 | 0.0 | 2.0 | 0.00 | 0.00 | 0.00 | 74 | 1015.5 |
| 20260903043901 | 81 | 207 | 1.0 | 2.0 | 0.00 | 0.00 | 0.00 | 74 | 1015.4 |
| 20260903043401 | 81 | 199 | 2.0 | 3.0 | 0.00 | 0.00 | 0.00 | 74 | 1015.5 |
| 20260903042859 | 82 | 251 | 2.0 | 3.0 | 0.00 | 0.00 | 0.00 | 74 | 1015.5 |
| 20260903042354 | 82 | 90 | 0.0 | 2.0 | 0.00 | 0.00 | 0.00 | 74 | 1015.6 |
| 20260903041850 | 82 | 128 | 2.0 | 3.0 | 0.00 | 0.00 | 0.00 | 75 | 1015.5 |
| 20260903041346 | 82 | 211 | 1.0 | 3.0 | 0.00 | 0.00 | 0.00 | 75 | 1015.5 |
| 20260903040842 | 82 | 178 | 1.0 | 2.0 | 0.00 | 0.00 | 0.00 | 75 | 1015.4 |
| 20260903040341 | 82 | 178 | 2.0 | 4.0 | 0.00 | 0.00 | 0.00 | 75 | 1015.4 |
| 20260903035837 | 82 | 232 | 0.0 | 2.0 | 0.00 | 0.00 | 0.00 | 74 | 1015.7 |
| 20260903035332 | 82 | 226 | 1.0 | 3.0 | 0.00 | 0.00 | 0.00 | 74 | 1015.9 |
| 20260903034827 | 82 | 215 | 1.0 | 6.0 | 0.00 | 0.00 | 0.00 | 74 | 1015.8 |
| 20260903034322 | 82 | 235 | 0.0 | 2.0 | 0.00 | 0.00 | 0.00 | 74 | 1015.7 |
| 20260903033817 | 82 | 171 | 1.0 | 4.0 | 0.00 | 0.00 | 0.00 | 74 | 1015.9 |
| 20260903033313 | 82 | 183 | 2.0 | 4.0 | 0.00 | 0.00 | 0.00 | 74 | 1015.9 |
| 20260903032807 | 82 | 345 | 1.0 | 8.0 | 0.00 | 0.00 | 0.00 | 73 | 1015.8 |
| 20260903032305 | 82 | 352 | 1.0 | 7.0 | 0.00 | 0.00 | 0.00 | 73 | 1015.6 |
| 20260903031804 | 83 | 224 | 1.0 | 1.0 | 0.00 | 0.00 | 0.00 | 73 | 1015.5 |
| 20260903031303 | 83 | 210 | 3.0 | 4.0 | 0.00 | 0.00 | 0.00 | 73 | 1015.4 |
| 20260903030759 | 83 | 182 | 4.0 | 7.0 | 0.00 | 0.00 | 0.00 | 72 | 1015.3 |
| 20260903030255 | 83 | 178 | 3.0 | 7.0 | 0.00 | 0.00 | 0.00 | 71 | 1015.5 |
| 20260903025750 | 84 | 251 | 3.0 | 7.0 | 0.00 | 0.00 | 0.00 | 71 | 1015.5 |
| 20260903025245 | 84 | 201 | 1.0 | 6.0 | 0.00 | 0.00 | 0.00 | 70 | 1015.5 |
| 20260903024740 | 84 | 218 | 4.0 | 7.0 | 0.00 | 0.00 | 0.00 | 70 | 1015.4 |
| 20260903024239 | 84 | 185 | 3.0 | 7.0 | 0.00 | 0.00 | 0.00 | 69 | 1015.4 |
| 20260903023735 | 84 | 153 | 3.0 | 4.0 | 0.00 | 0.00 | 0.00 | 68 | 1015.2 |
| 20260903023230 | 85 | 211 | 3.0 | 4.0 | 0.00 | 0.00 | 0.00 | 67 | 1015.3 |
| 20260903022730 | 85 | 197 | 1.0 | 4.0 | 0.00 | 0.00 | 0.00 | 67 | 1015.2 |
| 20260903022229 | 85 | 206 | 2.0 | 3.0 | 0.00 | 0.00 | 0.00 | 67 | 1015.1 |
| 20260903021724 | 85 | 242 | 0.0 | 2.0 | 0.00 | 0.00 | 0.00 | 67 | 1015.2 |
| 20260903021220 | 85 | 217 | 0.0 | 3.0 | 0.00 | 0.00 | 0.00 | 67 | 1014.8 |
| 20260903020720 | 85 | 212 | 1.0 | 2.0 | 0.00 | 0.00 | 0.00 | 66 | 1014.7 |
| 20260903020219 | 86 | 138 | 0.0 | 4.0 | 0.00 | 0.00 | 0.00 | 66 | 1014.5 |
| 20260903015715 | 86 | 137 | 4.0 | 7.0 | 0.00 | 0.00 | 0.00 | 66 | 1014.7 |
| 20260903015210 | 86 | 92 | 2.0 | 3.0 | 0.00 | 0.00 | 0.00 | 65 | 1014.4 |
| 20260903014706 | 86 | 118 | 5.0 | 7.0 | 0.00 | 0.00 | 0.00 | 65 | 1014.2 |
| 20260903014206 | 86 | 88 | 2.0 | 2.0 | 0.00 | 0.00 | 0.00 | 65 | 1014.0 |
| 20260903013705 | 86 | 104 | 5.0 | 6.0 | 0.00 | 0.00 | 0.00 | 64 | 1014.2 |
| 20260903013205 | 86 | 114 | 6.0 | 8.0 | 0.00 | 0.00 | 0.00 | 63 | 1014.2 |
| 20260903012704 | 87 | 93 | 4.0 | 6.0 | 0.00 | 0.00 | 0.00 | 63 | 1014.2 |
| 20260903012203 | 87 | 117 | 5.0 | 7.0 | 0.00 | 0.00 | 0.00 | 62 | 1013.8 |
| 20260903011658 | 87 | 55 | 2.0 | 8.0 | 0.00 | 0.00 | 0.00 | 61 | 1014.0 |
| 20260903011158 | 87 | 91 | 7.0 | 8.0 | 0.00 | 0.00 | 0.00 | 61 | 1013.9 |
| 20260903010653 | 88 | 107 | 4.0 | 8.0 | 0.00 | 0.00 | 0.00 | 60 | 1013.7 |
| 20260903010153 | 88 | 69 | 3.0 | 8.0 | 0.00 | 0.00 | 0.00 | 60 | 1013.7 |
| 20260903005652 | 88 | 67 | 3.0 | 4.0 | 0.00 | 0.00 | 0.00 | 59 | 1013.7 |
| 20260903005148 | 89 | 102 | 5.0 | 9.0 | 0.00 | 0.00 | 0.00 | 58 | 1013.7 |
| 20260903004643 | 89 | 236 | 2.0 | 8.0 | 0.00 | 0.00 | 0.00 | 58 | 1013.8 |
| 20260903004137 | 89 | 90 | 6.0 | 8.0 | 0.00 | 0.00 | 0.00 | 57 | 1013.7 |
| 20260903003633 | 90 | 99 | 4.0 | 10.0 | 0.00 | 0.00 | 0.00 | 56 | 1013.7 |
| 20260903003128 | 90 | 119 | 4.0 | 9.0 | 0.00 | 0.00 | 0.00 | 56 | 1013.7 |
| 20260903002624 | 90 | 72 | 3.0 | 7.0 | 0.00 | 0.00 | 0.00 | 55 | 1013.7 |
| 20260903002118 | 91 | 37 | 6.0 | 8.0 | 0.00 | 0.00 | 0.00 | 55 | 1013.3 |
| 20260903001613 | 91 | 1 | 5.0 | 10.0 | 0.00 | 0.00 | 0.00 | 54 | 1013.4 |
| 20260903001112 | 91 | 122 | 6.0 | 14.0 | 0.00 | 0.00 | 0.00 | 54 | 1013.3 |
| 20260903000609 | 92 | 4 | 5.0 | 9.0 | 0.00 | 0.00 | 0.00 | 53 | 1013.4 |
| 20260903000108 | 92 | 116 | 4.0 | 11.0 | 0.00 | 0.00 | 0.00 | 52 | 1013.3 |
| 20260902235607 | 92 | 101 | 9.0 | 13.0 | 0.00 | 0.00 | 0.00 | 52 | 1013.2 |
| 20260902235102 | 93 | 103 | 11.0 | 21.0 | 0.00 | 0.00 | 0.00 | 50 | 1013.4 |
| 20260902234556 | 94 | 89 | 5.0 | 11.0 | 0.00 | 0.00 | 0.00 | 48 | 1013.1 |
| 20260902234055 | 96 | 110 | 14.0 | 21.0 | 0.00 | 0.00 | 0.00 | 45 | 1013.2 |
| 20260902233550 | 98 | 98 | 4.0 | 14.0 | 0.00 | 0.00 | 0.00 | 41 | 1012.9 |
| 20260902233050 | 98 | 73 | 3.0 | 8.0 | 0.00 | 0.00 | 0.00 | 40 | 1012.9 |
| 20260902232544 | 99 | 31 | 5.0 | 8.0 | 0.00 | 0.00 | 0.00 | 38 | 1012.8 |
| 20260902232043 | 99 | 29 | 3.0 | 7.0 | 0.00 | 0.00 | 0.00 | 36 | 1012.8 |
| 20260902231538 | 99 | 354 | 3.0 | 4.0 | 0.00 | 0.00 | 0.00 | 36 | 1012.8 |
| 20260902231038 | 99 | 2 | 4.0 | 4.0 | 0.00 | 0.00 | 0.00 | 36 | 1012.7 |
| 20260902230533 | 99 | 125 | 2.0 | 3.0 | 0.00 | 0.00 | 0.00 | 36 | 1012.7 |
| 20260902230032 | 99 | 39 | 4.0 | 6.0 | 0.00 | 0.00 | 0.00 | 35 | 1012.8 |
| 20260902225528 | 99 | 9 | 2.0 | 4.0 | 0.00 | 0.00 | 0.00 | 35 | 1012.7 |
| 20260902225027 | 100 | 341 | 4.0 | 10.0 | 0.00 | 0.00 | 0.00 | 35 | 1012.7 |
| 20260902224526 | 100 | 352 | 7.0 | 10.0 | 0.00 | 0.00 | 0.00 | 34 | 1012.6 |
| 20260902224022 | 101 | 28 | 1.0 | 6.0 | 0.00 | 0.00 | 0.00 | 35 | 1012.6 |
| 20260902223518 | 100 | 89 | 3.0 | 8.0 | 0.00 | 0.00 | 0.00 | 35 | 1012.6 |
| 20260902223017 | 101 | 32 | 4.0 | 7.0 | 0.00 | 0.00 | 0.00 | 35 | 1012.6 |
| 20260902222516 | 100 | 315 | 1.0 | 8.0 | 0.00 | 0.00 | 0.00 | 36 | 1012.6 |
| 20260902222015 | 100 | 62 | 3.0 | 3.0 | 0.00 | 0.00 | 0.00 | 35 | 1012.7 |
| 20260902221515 | 99 | 51 | 2.0 | 3.0 | 0.00 | 0.00 | 0.00 | 37 | 1012.7 |
| 20260902221010 | 99 | 317 | 2.0 | 6.0 | 0.00 | 0.00 | 0.00 | 36 | 1012.9 |
| 20260902220505 | 99 | 10 | 6.0 | 8.0 | 0.00 | 0.00 | 0.00 | 37 | 1013.0 |
| 20260902215959 | 99 | 339 | 7.0 | 9.0 | 0.00 | 0.00 | 0.00 | 36 | 1012.9 |
| 20260902215456 | 99 | 340 | 4.0 | 6.0 | 0.00 | 0.00 | 0.00 | 36 | 1012.9 |
| 20260902214951 | 100 | 354 | 6.0 | 8.0 | 0.00 | 0.00 | 0.00 | 35 | 1012.9 |
| 20260902214450 | 100 | 86 | 2.0 | 7.0 | 0.00 | 0.00 | 0.00 | 36 | 1012.9 |
| 20260902213944 | 99 | 288 | 1.0 | 3.0 | 0.00 | 0.00 | 0.00 | 36 | 1012.9 |
| 20260902213441 | 99 | 112 | 4.0 | 6.0 | 0.00 | 0.00 | 0.00 | 37 | 1013.0 |
| 20260902212939 | 99 | 13 | 3.0 | 3.0 | 0.00 | 0.00 | 0.00 | 36 | 1013.1 |
| 20260902212436 | 99 | 315 | 4.0 | 8.0 | 0.00 | 0.00 | 0.00 | 36 | 1013.2 |
| 20260902211932 | 101 | 26 | 3.0 | 9.0 | 0.00 | 0.00 | 0.00 | 35 | 1013.3 |